Saskatoon John G. Diefenbaker International Airport

Jump to: basic info | weather | frequencies | runways | comments

Related pages: nearby airports | nearby navaids | notams | map

Basic information (top)

Codes: YXE CYXE
Location: lon 52.170799, lat -106.699997, elev 1,653 ft / 504 m msl
Status: medium_airport
Scheduled airline service: yes
Links: Wikipedia Mobile

Weather (top)

Current conditions (rec'd 2015/03/02 02:00Z):

CYXE 020200Z 18009KT 15SM SKC M12/M14 A3013 RMK SLP249

Airport forecast (rec'd 2015/03/01 00:42Z):

TAF TAF CYXE 012338Z 0200/0224 22008KT P6SM SKC 
      BECMG 0200/0202 17010KT 
     FM020700 17010KT WS006/20030KT P6SM BKN200 
     FM021400 26010KT 11/2SM -SN BKN020 OVC030 
     FM021700 33025G35KT P6SM BKN030 OVC200 
      TEMPO 0217/0221 2SM BLSN 
     FM022100 31020G30KT P6SM BKN030 
      RMK NXT FCST BY 020600Z

Frequencies (top)

Verify before use: may be inaccurate or out of date.

A/D: 119.9 MHz (APP/DEP)
A/G: 118.3 MHz (MF SASKATOON RDO)
ATIS: 128.4 MHz (ATIS)
CNTR: 134.325 MHz (WINNIPEG CNTR)
GND: 121.9 MHz (GND)
RCO: 122.5 MHz (EDMONTON RDO)
TWR: 118.3 MHz (TWR)

Runways (top)

09/27: 8,300 x 200 ft (2,530 x 61 m) — paved — lighted

15/33: 6,200 x 150 ft (1,890 x 46 m) — paved — lighted

Latest comments (top)

Timmies: Timmies in the main terminal. Park at ... [read]

More... (top)

See also NOTAMs and nearby airports and navaids, or visit the Saskatoon John G. Diefenbaker International Airport page at the main OurAirports website..